Content
SEND FEEDBACK

Daily
Averages
Monthly
Summary
United States of America

VERNON, VERMONT


Home > North America > United States > Vermont
Elevation: 238 feet     Latitude: 42 46N     Longitude: 072 31W

WEATHER
 
SELECT A DAY
Number of Records: 454,990;   Date Range: 1/1/95 - 11/23/14
 
SHARE

PRINT THIS DATA

[ ← Previous Day ]
WEATHER ALMANAC - JANUARY 7, 2014
[ Next Day → ]
[ °C ]   °F
Weather ElementAverageHighLow
Temperature8.3 °F24.8 °F (12:35 am) (11:15 am)
Dewpoint-9.7 °F8.6 °F (12:35 am)-14.8 °F (1:55 pm)
Humidity42.5 %54 % (1:15 am)34 % (1:55 pm)
Barometer29.90 in30.17 in (11:55 pm)29.51 in (12:35 am)
Wind Speed10.7 mph20.7 mph (11:15 am)
Wind Gust31.1 mph (12:15 pm)
Weather ElementAverage
Visibility10 mi
Wind DirectionWSW (255.4 °)

Weather ElementTotal
Precipitation---
Heating Degree Days52.6 (Base 65)
Averaged from 71 records on January 7, 2014
WEATHER CONDITIONS BREAKOUT
WIND DIRECTION BREAKOUT
WEATHER BY HOUR - JANUARY 7, 2014
[ °C ]   °F
Local TimeTemperatureDewpointHumidityBarometerVisibilityWind DirectionWind SpeedGust SpeedPrecipitationEventsConditions
12:35 AM24.8 °F8.6 °F50 %29.51 in10.0 miWest (280°)12.7 mph25.3 mphOvercast
12:55 AM23.0 °F5.0 °F46 %29.52 in10.0 miWest (280°)9.2 mph17.3 mphOvercast
1:15 AM19.4 °F5.0 °F54 %29.54 in10.0 miWest (260°)11.5 mph21.9 mphOvercast
1:35 AM17.6 °F1.4 °F49 %29.57 in10.0 miWSW (250°)17.3 mph24.2 mphOvercast
1:55 AM15.8 °F-2.2 °F45 %29.60 in10.0 miWest (270°)15.0 mph23.0 mphMostly Cloudy
2:15 AM15.8 °F-5.8 °F38 %29.61 in10.0 miWest (280°)10.4 mph21.9 mphScattered Clouds
2:35 AM14.0 °F-7.6 °F38 %29.62 in10.0 miWSW (250°)13.8 mph19.6 mphOvercast
2:55 AM12.2 °F-7.6 °F41 %29.63 in10.0 miWNW (290°)11.5 mph20.7 mphOvercast
3:15 AM12.2 °F-7.6 °F41 %29.65 in10.0 miWest (280°)11.5 mph19.6 mphOvercast
3:35 AM10.4 °F-7.6 °F44 %29.66 in10.0 miWNW (290°)8.1 mphOvercast
3:55 AM10.4 °F-9.4 °F41 %29.67 in10.0 miWNW (300°)6.9 mph20.7 mphOvercast
4:15 AM10.4 °F-9.4 °F41 %29.68 in10.0 miWNW (290°)6.9 mph16.1 mphOvercast
4:35 AM10.4 °F-7.6 °F44 %29.69 in10.0 miWNW (290°)6.9 mphMostly Cloudy
4:55 AM8.6 °F-9.4 °F44 %29.70 in10.0 miWest (280°)11.5 mph21.9 mphPartly Cloudy
5:15 AM8.6 °F-7.6 °F48 %29.72 in10.0 miNW (310°)6.9 mph18.4 mphPartly Cloudy
5:35 AM8.6 °F-7.6 °F48 %29.72 in10.0 miWNW (290°)5.8 mphClear
5:55 AM8.6 °F-9.4 °F44 %29.73 in10.0 miWest (280°)11.5 mph18.4 mphClear
6:15 AM8.6 °F-9.4 °F44 %29.74 in10.0 miWest (280°)10.4 mph24.2 mphClear
6:35 AM8.6 °F-9.4 °F44 %29.77 in10.0 miWNW (290°)6.9 mph16.1 mphPartly Cloudy
6:55 AM6.8 °F-9.4 °F48 %29.78 in10.0 miWNW (290°)11.5 mph17.3 mphPartly Cloudy
7:15 AM6.8 °F-9.4 °F48 %29.78 in10.0 miWNW (300°)6.9 mph18.4 mphClear
7:35 AM6.8 °F-9.4 °F48 %29.79 in10.0 miWNW (290°)9.2 mph17.3 mphClear
7:55 AM6.8 °F-9.4 °F48 %29.81 in10.0 miWest (270°)8.1 mph20.7 mphClear
8:15 AM6.8 °F-7.6 °F52 %29.82 in10.0 miWest (280°)13.8 mph21.9 mphPartly Cloudy
8:35 AM6.8 °F-7.6 °F52 %29.84 in10.0 miWNW (290°)12.7 mph24.2 mphClear
8:55 AM8.6 °F-9.4 °F44 %29.86 in10.0 miWest (260°)8.1 mph23.0 mphClear
9:15 AM8.6 °F-9.4 °F44 %29.87 in10.0 miWest (270°)15.0 mph23.0 mphClear
9:35 AM8.6 °F-7.6 °F48 %29.89 in10.0 miWNW (290°)18.4 mph26.5 mphPartly Cloudy
9:55 AM8.6 °F-9.4 °F44 %29.89 in10.0 miWest (270°)11.5 mph24.2 mphPartly Cloudy
10:15 AM8.6 °F-11.2 °F40 %29.91 in10.0 miWest (270°)11.5 mph24.2 mphClear
10:35 AM8.6 °F-11.2 °F40 %29.91 in10.0 miWNW (290°)15.0 mph27.6 mphClear
10:55 AM8.6 °F-11.2 °F40 %29.91 in10.0 miWest (270°)18.4 mph24.2 mphClear
11:15 AM0.0 °F0.0 °F29.90 in10.0 miWNW (290°)20.7 mph27.6 mphClear
11:35 AM8.6 °F0.0 °F29.91 in10.0 miWest (260°)10.4 mph23.0 mphClear
11:55 AM8.6 °F-13.0 °F37 %29.91 in10.0 miWSW (240°)12.7 mph27.6 mphPartly Cloudy
12:15 PM8.6 °F-13.0 °F37 %29.91 in10.0 miWest (270°)18.4 mph31.1 mphPartly Cloudy
12:35 PM8.6 °F0.0 °F29.91 in10.0 miWest (270°)15.0 mph23.0 mphClear
12:55 PM8.6 °F-11.2 °F40 %29.92 in10.0 miWSW (250°)19.6 mph27.6 mphClear
1:15 PM8.6 °F-13.0 °F37 %29.93 in10.0 miWest (260°)12.7 mph23.0 mphClear
1:35 PM8.6 °F-11.2 °F40 %29.93 in10.0 miWest (270°)12.7 mph23.0 mphClear
1:55 PM8.6 °F-14.8 °F34 %29.93 in10.0 miWSW (250°)18.4 mph27.6 mphClear
2:15 PM8.6 °F-14.8 °F34 %29.96 in10.0 miWest (270°)20.7 mph25.3 mphClear
2:35 PM8.6 °F-14.8 °F34 %29.97 in10.0 miWSW (250°)10.4 mph24.2 mphClear
2:55 PM0.0 °F0.0 °F29.96 in10.0 miWest (260°)15.0 mph27.6 mphClear
3:15 PM6.8 °F-14.8 °F37 %29.98 in10.0 miWSW (250°)16.1 mph24.2 mphClear
3:35 PM6.8 °F-14.8 °F37 %30.00 in10.0 miWNW (290°)11.5 mph21.9 mphClear
3:55 PM6.8 °F-14.8 °F37 %30.00 in10.0 miWSW (250°)10.4 mph17.3 mphClear
4:15 PM6.8 °F-13.0 °F40 %30.01 in10.0 miSW (230°)6.9 mphClear
4:35 PM6.8 °F-13.0 °F40 %30.03 in10.0 miWSW (250°)12.7 mph16.1 mphClear
4:55 PM6.8 °F-14.8 °F37 %30.04 in10.0 miWest (270°)10.4 mph18.4 mphClear
5:15 PM6.8 °F-14.8 °F37 %30.05 in10.0 miWSW (250°)5.8 mphClear
5:35 PM6.8 °F-14.8 °F37 %30.05 in10.0 miWest (270°)8.1 mph18.4 mphClear
5:55 PM6.8 °F-14.8 °F37 %30.06 in10.0 miWSW (240°)8.1 mphClear
6:15 PM6.8 °F-14.8 °F37 %30.07 in10.0 miWSW (240°)6.9 mphClear
6:35 PM6.8 °F-14.8 °F37 %30.08 in10.0 miSSW (210°)4.6 mphClear
6:55 PM5.0 °F-13.0 °F43 %30.09 in10.0 miSW (230°)8.1 mphClear
7:15 PM5.0 °F-13.0 °F43 %30.10 in10.0 miSW (230°)12.7 mph21.9 mphClear
7:35 PM5.0 °F-13.0 °F43 %30.10 in10.0 miSW (220°)8.1 mphClear
7:55 PM5.0 °F-13.0 °F43 %30.11 in10.0 miSW (230°)6.9 mphClear
8:15 PM5.0 °F-13.0 °F43 %30.11 in10.0 miSW (220°)11.5 mph16.1 mphClear
8:35 PM5.0 °F-13.0 °F43 %30.11 in10.0 miSW (220°)11.5 mph17.3 mphClear
8:55 PM5.0 °F-13.0 °F43 %30.12 in10.0 miSSW (210°)6.9 mph16.1 mphClear
9:15 PM5.0 °F-14.8 °F40 %30.13 in10.0 miSW (220°)9.2 mphClear
9:35 PM5.0 °F-13.0 °F43 %30.12 in10.0 miSSW (210°)6.9 mphClear
9:55 PM5.0 °F-13.0 °F43 %30.13 in10.0 miSW (220°)6.9 mphClear
10:15 PM5.0 °F-13.0 °F43 %30.14 in10.0 miSW (220°)3.5 mphClear
10:35 PM5.0 °F-13.0 °F43 %30.14 in10.0 miSSW (210°)5.8 mphClear
10:55 PM5.0 °F-11.2 °F47 %30.14 in10.0 miSW (220°)10.4 mphClear
11:15 PM5.0 °F-11.2 °F47 %30.15 in10.0 miSouth (180°)5.8 mphClear
11:35 PM5.0 °F-11.2 °F47 %30.15 in10.0 miSW (220°)4.6 mphClear
11:55 PM5.0 °F-11.2 °F47 %30.17 in10.0 miCalmClear
Hourly data recorded from KEEN, located miles away from Vernon, Vermont







STORIES FROM OUR PARTNERS